STARLINK-1577, 46063

Orbit data source: Space-Track

STARLINK-1577, 46063 is a payload satellite owned by SpaceX/Seattle (US) in LEO that was launched on Fri, 07 Aug 2020 UTC via an FALCON 9 launch vehicle from the Air Force Eastern Test Range (AFETR). Payload-class satellites include a variety of spacecraft equipped with specific instruments for various scientific and technological missions. These include communications satellites like Starlink; space stations such as the ISS; scientific satellites like the Hubble; Earth observation satellites from companies like Planet Labs, Umbra, and HawkEye 360; GPS; miniature CubeSats for education and research; and military/defense satellites.

Loading next visibility...
Identifier
46063, 2020-055AN
Orbit
LEO
Last TLE update
19 hours ago
Origin
Manufacturer
SpaceX/Seattle
Mission
Operational Commercial Communications
Bus & Motor
STARLINK, Unknown motor
Mass
260 kg wet, ~248 kg dry
Launch date (UTC)
2020-08-07 (5 years ago)
Launch vehicle
FALCON 9
Launch site
Air Force Eastern Test Range (AFETR)
Object type
Payload
Rocket body
Debris
Shape & HBR
Box + 1 Pan, 8.86 m
Radar Cross Section
13.562 m², Large (>1 m²)

Expand to show TLE details & history

TLE from 19 hours ago
0 STARLINK-1577
1 46063U 20055AN  25128.47876710  .00001353  00000-0  10975-3 0  9996
2 46063  53.0549  46.7631 0001299  83.2973 276.8163 15.06394491263025
Epoch: 2025-05-08T11:29Z
Definitive object data (Epoch: 2025-05-08T11:29:25.477Z)
Latitude
-0.00008°
Longitude
7.85821°
Altitude
548.001 km
Speed
7.589 km/s
True Right ascension
03h 07m 03s
True Declination
0° 00' 00"
Sunlit
Object was in daylight at TLE epoch
Visualization TLE readout
Latitude
-22.29773°
Longitude
-13.55489°
Altitude
553.891 km
Speed
7.585 km/s
Apparent Right ascension
02h 05m 33s
Apparent Declination
-30° 45' 42"
Sunlit
Object is in daylight
Visualization observer readout
Local Sidereal Time
14:37:15
Azimuth
37.596° NE
Elevation
-78.805°
Doppler factor
1
Orbital elements
Apogee altitude
548.399 km
Perigee altitude
546.599 km
Semi-major axis
6,925.636 km
Eccentricity
0.0001299
Inclination
53.0549°
RAAN
46.7631°
Arg. of periapsis
83.2973°
True anomaly
276.80152°
Mean anomaly
276.8163°
Eccentric anomaly
276.80891°
Mean motion
3.76577 °/min
BSTAR
0.00010975
Orbital period
95.6 mins
Loading maneuver chart data...
Loading SW <> Apogee altitude chart data...
Loading historical data...
Loading historical data...
Loading historical data...
Loading historical data...
Loading historical data...
Loading historical data...
Loading historical data...

STARLINK-1577 Visibility forecast

Observer location: undefined°, undefined°

Span
Click to sort rows by Start time (UTC) header in descending order
Start Az.
Max El. time (UTC)
Max El. Az.
Max El.
End time (UTC)
End Az.
6 mins2025-05-09 21:07:24.923Z232.65° WSW2025-05-09 21:10:24.923Z31.747° NE43.565°2025-05-09 21:13:24.923Z48.72° ENE
4 mins2025-05-09 22:48:24.923Z307.923° NW2025-05-09 22:50:24.923Z346.726° N19.014°2025-05-09 22:52:24.923Z20.473° NNE
4 mins2025-05-10 02:10:24.923Z356.936° N2025-05-10 02:11:24.923Z17.291° NNE20.169°2025-05-10 02:14:24.923Z69.663° E
6 mins2025-05-10 03:49:24.923Z308.183° NW2025-05-10 03:51:24.923Z284.642° WNW44.647°2025-05-10 03:55:24.923Z132.673° SE
|